Location: Newark
(17.9939°S, 31.0481°E)
Time: 08:03:50
(UTC+00:00)

Courier 1B - Pass Details

Date: 13 November 2019
Orbit: 963 x 1209 km, 28.3° (Epoch: 05 December)

Event Time Altitude Azimuth Distance (km) Brightness Sun altitude
Exits shadow 02:07:59 20° 303° (WNW) 2,237 8.8 -15.0°
Maximum altitude 02:10:02 23° 327° (NNW) 2,074 8.7 -14.6°
Drops below altitude 10° 02:15:16 10° 17° (NNE) 2,805 9.8 -13.4°
Sets 02:18:29 0° 31° (NNE) 3,714 10.6 -12.7°
